sat.trackr.live / text

‹ back to catalog

TYCHE

NORAD 60496 · 2024-149AE

PAYLOAD ACTIVE UNKNOWN

§ Identity

Operator
Country
UK
Launch date
2024-08-16
Launch site
AFWTR
Launch vehicle
Mass (kg)
RCS (m²)

External: N2YO · Heavens-Above · Gunter

§ Orbital elements

Epoch: 2026-05-25T04:24:14.003424Z

Period
94.37 min
Inclination
97.3754°
Eccentricity
0.0002678
Mean motion
15.25857002 rev/d
Perigee alt
486.4 km
Apogee alt
490.1 km
Semi-major
6,866.4 km
B*
1.6055e-4
RAAN
223.3081°
Arg perigee
38.0817°
Mean anomaly
322.0611°
Rev number
9,839

§ Raw data

TYCHE1 60496U 24149AE  26145.18349541  .00004038  00000+0  16055-3 0  99922 60496  97.3754 223.3081 0002678  38.0817 322.0611 15.25857002 98390

JSON: /api/v1/satellites/60496 · /tle

For live sub-satellite position, see the globe view (requires WebGL).

§ Visibility from observer

Set your observer location to see the next 7 days of passes ≥ 10°. The values pass through the URL so the page stays shareable.

No JS? Fill the form by hand. The geolocation button needs JavaScript.

§ Radio — SatNOGS DB

ModeDescriptionDownlinkUplink
FM Mode S - Transmitter 2.230 GHz
FM Mode X - Transmitter 8.200 GHz

2 transmitters · refreshed weekly from db.satnogs.org